Terug naar catalogus

QIANFAN-147

ActiefCommunicatiePO
NORAD 69106·PAYLOAD·🇨🇳 China

Gelanceerd May 17, 2026 vanaf Wenchang Space Launch Site

Loading…

Volgende Passages (komende 24 uur)

TLE

VersSource: Space-Track

Epoch: Sep 14, 2026, 12:54 UTC

1 69106U 26108C   26257.53764539  .00000101  00000-0  13747-3 0  9990
2 69106  89.0191  13.1296 0002077 103.4897 256.6486 13.51023984 16495

Volg QIANFAN-147 in realtime met AllMySat

Download on the App Store